Terminal Aerodrome Forecast
Issued by NWS

Home | Current Version | Previous Version | Graphics & Text | Print | Product List | Glossary On
Versions: 1 2 3 4 5 6 7 8 9 10 11 12 13 14 15 16 17 18 19 20 21 22 23 24 25 26
280
FTUS43 KBIS 061739
TAFDIK
TAF
KDIK 061739Z 0618/0718 30027G35KT 1/2SM BLSN OVC014
      TEMPO 0618/0620 2SM BLSN BKN009 OVC012
     FM062000 30024G31KT 3SM BLSN OVC045
     FM062300 30019G27KT P6SM OVC045
     FM070300 30018KT P6SM BKN035 OVC050=

USA.gov is the U.S. government's official web portal to all federal, state and local government web resources and services.